When you browse on this site, cookies collect data to enhance your experience and personalize the content and advertising you see.
Visit our Privacy Policy to learn more. By continuing to use the site, you agree to this use of cookies and data.
  • In Romania
  • List of Countries
  • For 7 days
  • Water Temperature
  • Satellite Maps
  • Weather Map
  • Weather Widgets
  • user-avatar
    Login

    Hourly Weather Naftalan

    Today, 20 June, Thursday

    Time Temperature Precipitation Wind Pressure Humidity
    00:00 +27°C° 0 mm 1 mps 758 mmHg 61%
    01:00 +26°C° 0 mm 1 mps 758 mmHg 62%
    02:00 +26°C° 0 mm 1 mps 758 mmHg 62%
    03:00 +25°C° 0 mm 1 mps 758 mmHg 62%
    04:00 +26°C° 0 mm 1 mps 758 mmHg 58%
    05:00 +27°C° 0 mm 2 mps 758 mmHg 54%
    06:00 +28°C° 0 mm 2 mps 758 mmHg 49%
    07:00 +29°C° 0 mm 2 mps 758 mmHg 43%
    08:00 +31°C° 0 mm 2 mps 758 mmHg 36%
    09:00 +34°C° 0 mm 2 mps 758 mmHg 30%
    10:00 +34°C° 0 mm 3 mps 758 mmHg 28%
    11:00 +35°C° 0 mm 4 mps 758 mmHg 26%
    12:00 +36°C° 0 mm 4 mps 758 mmHg 24%
    13:00 +35°C° 0 mm 4 mps 757 mmHg 26%
    14:00 +35°C° 0 mm 5 mps 757 mmHg 29%
    15:00 +35°C° 0 mm 5 mps 756 mmHg 31%
    16:00 +34°C° 0 mm 4 mps 756 mmHg 35%
    17:00 +33°C° 0 mm 4 mps 757 mmHg 39%
    18:00 +32°C° 0 mm 4 mps 757 mmHg 43%
    19:00 +30°C° 0 mm 3 mps 757 mmHg 49%
    20:00 +29°C° 0 mm 2 mps 757 mmHg 56%
    21:00 +27°C° 0 mm 1 mps 757 mmHg 62%
    22:00 +27°C° 0 mm 1 mps 757 mmHg 62%
    23:00 +27°C° 0 mm 1 mps 757 mmHg 62%

    Tomorrow, 21 June, Friday

    Time Temperature Precipitation Wind Pressure Humidity
    00:00 +27°C° 0 mm 2 mps 757 mmHg 62%
    01:00 +27°C° 0 mm 2 mps 757 mmHg 60%
    02:00 +27°C° 0 mm 3 mps 757 mmHg 59%
    03:00 +27°C° 0 mm 3 mps 757 mmHg 58%
    04:00 +27°C° 0 mm 3 mps 757 mmHg 57%
    05:00 +28°C° 0 mm 3 mps 757 mmHg 56%
    06:00 +28°C° 0 mm 3 mps 758 mmHg 55%
    07:00 +29°C° 0.1 mm 3 mps 758 mmHg 48%
    08:00 +32°C° 0.1 mm 4 mps 758 mmHg 42%
    09:00 +33°C° 0.1 mm 4 mps 758 mmHg 36%
    10:00 +33°C° 0.2 mm 5 mps 758 mmHg 36%
    11:00 +34°C° 0.2 mm 6 mps 758 mmHg 37%
    12:00 +34°C° 0.2 mm 7 mps 758 mmHg 37%
    13:00 +34°C° 0 mm 7 mps 758 mmHg 39%
    14:00 +34°C° 0 mm 7 mps 758 mmHg 41%
    15:00 +34°C° 0 mm 7 mps 757 mmHg 43%
    16:00 +33°C° 0 mm 6 mps 757 mmHg 44%
    17:00 +33°C° 0 mm 5 mps 757 mmHg 44%
    18:00 +32°C° 0 mm 5 mps 757 mmHg 45%
    19:00 +32°C° 0 mm 4 mps 758 mmHg 49%
    20:00 +30°C° 0 mm 3 mps 758 mmHg 52%
    21:00 +29°C° 0 mm 2 mps 759 mmHg 56%
    22:00 +29°C° 0 mm 3 mps 759 mmHg 57%
    23:00 +28°C° 0 mm 3 mps 759 mmHg 58%

    Day after tomorrow, 22 June, Saturday

    Time Temperature Precipitation Wind Pressure Humidity
    00:00 +28°C° 0 mm 3 mps 759 mmHg 59%
    01:00 +28°C° 0 mm 3 mps 759 mmHg 60%
    02:00 +27°C° 0 mm 4 mps 759 mmHg 61%
    03:00 +27°C° 0 mm 4 mps 759 mmHg 62%
    04:00 +27°C° 0 mm 4 mps 759 mmHg 60%
    05:00 +28°C° 0 mm 4 mps 759 mmHg 59%
    06:00 +28°C° 0 mm 3 mps 759 mmHg 57%
    07:00 +30°C° 0 mm 3 mps 760 mmHg 51%
    08:00 +31°C° 0 mm 3 mps 760 mmHg 44%
    09:00 +34°C° 0 mm 2 mps 760 mmHg 38%
    10:00 +35°C° 0 mm 3 mps 760 mmHg 35%
    11:00 +35°C° 0 mm 4 mps 760 mmHg 33%
    12:00 +36°C° 0 mm 4 mps 760 mmHg 31%
    13:00 +36°C° 0 mm 4 mps 759 mmHg 33%
    14:00 +36°C° 0 mm 4 mps 759 mmHg 35%
    15:00 +35°C° 0 mm 4 mps 759 mmHg 37%
    16:00 +34°C° 0 mm 4 mps 759 mmHg 41%
    17:00 +33°C° 0 mm 3 mps 759 mmHg 45%
    18:00 +31°C° 0 mm 3 mps 759 mmHg 50%
    19:00 +30°C° 0 mm 3 mps 759 mmHg 54%
    20:00 +29°C° 0 mm 2 mps 760 mmHg 59%
    21:00 +28°C° 0 mm 2 mps 760 mmHg 63%
    22:00 +28°C° 0 mm 2 mps 760 mmHg 66%
    23:00 +28°C° 0 mm 2 mps 760 mmHg 68%

    23 June, Sunday

    Time Temperature Precipitation Wind Pressure Humidity
    00:00 +27°C° 0 mm 2 mps 760 mmHg 70%
    01:00 +27°C° 0 mm 2 mps 760 mmHg 71%
    02:00 +27°C° 0 mm 2 mps 760 mmHg 72%
    03:00 +26°C° 0 mm 2 mps 760 mmHg 73%
    04:00 +27°C° 0 mm 2 mps 760 mmHg 69%
    05:00 +28°C° 0 mm 2 mps 760 mmHg 65%
    06:00 +29°C° 0 mm 2 mps 760 mmHg 60%
    07:00 +30°C° 0 mm 2 mps 760 mmHg 54%
    08:00 +32°C° 0 mm 2 mps 760 mmHg 48%
    09:00 +33°C° 0 mm 1 mps 761 mmHg 41%
    10:00 +35°C° 0 mm 2 mps 760 mmHg 40%
    11:00 +36°C° 0 mm 3 mps 760 mmHg 39%
    12:00 +36°C° 0 mm 4 mps 760 mmHg 37%
    13:00 +37°C° 0 mm 4 mps 760 mmHg 37%
    14:00 +37°C° 0 mm 4 mps 759 mmHg 36%
    15:00 +37°C° 0 mm 4 mps 759 mmHg 35%
    16:00 +36°C° 0 mm 4 mps 759 mmHg 38%
    17:00 +35°C° 0 mm 4 mps 759 mmHg 41%
    18:00 +34°C° 0 mm 4 mps 759 mmHg 44%
    19:00 +33°C° 0 mm 3 mps 759 mmHg 50%
    20:00 +30°C° 0 mm 3 mps 760 mmHg 57%
    21:00 +29°C° 0 mm 3 mps 760 mmHg 64%
    22:00 +29°C° 0 mm 2 mps 760 mmHg 65%
    23:00 +28°C° 0 mm 1 mps 760 mmHg 66%

    24 June, Monday

    Time Temperature Precipitation Wind Pressure Humidity
    00:00 +26°C° 0 mm 0 mps 760 mmHg 67%
    01:00 +28°C° 0 mm 1 mps 760 mmHg 66%
    02:00 +28°C° 0 mm 2 mps 760 mmHg 65%
    03:00 +28°C° 0 mm 2 mps 760 mmHg 63%
    04:00 +28°C° 0 mm 2 mps 760 mmHg 62%
    05:00 +29°C° 0 mm 2 mps 760 mmHg 60%
    06:00 +30°C° 0 mm 1 mps 760 mmHg 58%
    07:00 +31°C° 0 mm 2 mps 760 mmHg 53%
    08:00 +32°C° 0 mm 2 mps 760 mmHg 48%
    09:00 +35°C° 0 mm 3 mps 760 mmHg 43%
    10:00 +35°C° 0 mm 3 mps 760 mmHg 41%
    11:00 +36°C° 0 mm 3 mps 760 mmHg 39%
    12:00 +37°C° 0 mm 3 mps 759 mmHg 38%
    13:00 +37°C° 0 mm 4 mps 759 mmHg 38%
    14:00 +36°C° 0 mm 5 mps 759 mmHg 39%
    15:00 +36°C° 0 mm 5 mps 758 mmHg 39%
    16:00 +35°C° 0 mm 5 mps 758 mmHg 42%
    17:00 +34°C° 0 mm 4 mps 758 mmHg 45%
    18:00 +33°C° 0 mm 4 mps 758 mmHg 48%
    19:00 +31°C° 0 mm 3 mps 758 mmHg 53%
    20:00 +30°C° 0 mm 3 mps 759 mmHg 58%
    21:00 +29°C° 0 mm 2 mps 759 mmHg 63%
    22:00 +29°C° 0 mm 2 mps 759 mmHg 62%
    23:00 +29°C° 0 mm 3 mps 759 mmHg 60%

    25 June, Tuesday

    Time Temperature Precipitation Wind Pressure Humidity
    00:00 +29°C° 0 mm 3 mps 759 mmHg 59%
    01:00 +28°C° 0 mm 3 mps 759 mmHg 59%
    02:00 +28°C° 0 mm 2 mps 759 mmHg 59%
    03:00 +28°C° 0 mm 2 mps 759 mmHg 59%
    04:00 +28°C° 0 mm 2 mps 759 mmHg 57%
    05:00 +29°C° 0 mm 2 mps 759 mmHg 56%
    06:00 +30°C° 0 mm 2 mps 759 mmHg 55%
    07:00 +31°C° 0 mm 2 mps 760 mmHg 48%
    08:00 +34°C° 0 mm 2 mps 760 mmHg 42%
    09:00 +36°C° 0 mm 2 mps 760 mmHg 35%
    10:00 +37°C° 0 mm 3 mps 760 mmHg 32%
    11:00 +38°C° 0 mm 3 mps 759 mmHg 29%
    12:00 +40°C° 0 mm 4 mps 759 mmHg 25%
    13:00 +40°C° 0 mm 5 mps 759 mmHg 27%
    14:00 +39°C° 0 mm 5 mps 759 mmHg 29%
    15:00 +39°C° 0 mm 6 mps 759 mmHg 30%
    16:00 +37°C° 0 mm 5 mps 759 mmHg 33%
    17:00 +35°C° 0 mm 5 mps 759 mmHg 36%
    18:00 +34°C° 0 mm 4 mps 759 mmHg 39%
    19:00 +33°C° 0 mm 3 mps 759 mmHg 44%
    20:00 +30°C° 0 mm 2 mps 760 mmHg 49%
    21:00 +29°C° 0 mm 1 mps 760 mmHg 54%
    22:00 +29°C° 0 mm 2 mps 760 mmHg 54%
    23:00 +29°C° 0 mm 2 mps 760 mmHg 53%
    Show more